Flag for Qatar Weather past 2 weeks in Al-Jamiliyah, Qatar

Now
74 °F

Sunny.


Feels Like: 77 °F
Forecast: 60 / 77 °F
Wind: 9 mph from East

Location: Al Udeid

Current Time: Feb 28, 2015 at 4:14:19 PM

Latest Report: Feb 28, 2015 at 3:58 PM


Visibility: N/A

Pressure: 29.96 "Hg

Humidity: 43%

Dew point: 50 °F

Location of Al-JamiliyahLocation

Historic Weather in Al-Jamiliyah — Graph

°F

Al-Jamiliyah temperature yesterday

Maximum temperature yesterday: 72 °F (at 2:58 PM)
Minimum temperature yesterday: 58 °F (at 1:58 AM)
Average temperature yesterday: 64 °F

Past Weeks' High & Low Weather Summary

 TemperatureHumidityPressure
High93 °F (Feb 20, 3:58 PM)100% (Feb 14, 3:58 AM)30.19 "Hg (Feb 14, 3:58 AM)
Low48 °F (Feb 24, 5:58 AM)17% (Feb 26, 1:58 PM)29.56 "Hg (Feb 20, 2:58 PM)
Average68 °F60%29.95 "Hg
* Reported Feb 13 2:58 PM — Feb 28 2:58 PM, Al-Jamiliyah, Weather by CustomWeather, © 2015

Note: Actual official high and low records may vary slightly from our data, if they occured in-between our weather recording intervals... More about our weather records

Advertising

Al-Jamiliyah weather history for previous 24 hours

 ConditionsComfort  
Time TempWeatherWind HumidityBarometerVisibility
2:58 PM
Sat, Feb 28
76 °FSunny.3 mph37%29.98 "HgN/A
1:58 PM77 °FClear.No wind27%29.97 "HgN/A
12:58 PM76 °FPassing clouds.1 mph35%30.01 "HgN/A
11:58 AM75 °FPassing clouds.5 mph37%30.03 "HgN/A
10:58 AM72 °FPassing clouds.3 mph54%30.06 "HgN/A
9:58 AM69 °FClear.5 mph69%30.09 "HgN/A
8:58 AM65 °FClear.7 mph91%30.09 "Hg6 mi
7:58 AM59 °FFog.6 mph100%30.10 "Hg3 mi
6:58 AM54 °FFog.6 mph100%30.06 "Hg2 mi
5:58 AM54 °FFog.6 mph100%30.05 "Hg0 mi
5:50 AM54 °FFog.5 mph100%30.03 "Hg0 mi
5:04 AM55 °FFog.6 mph100%30.02 "Hg1 mi
4:58 AM54 °FFog.6 mph100%30.03 "Hg0 mi
3:58 AM55 °FFog.6 mph100%30.01 "Hg1 mi
2:58 AM56 °FFog.7 mph100%30.01 "Hg3 mi
1:58 AM57 °FFog.9 mph100%30.01 "Hg4 mi
12:58 AM58 °FFog.8 mph97%30.03 "Hg5 mi
11:58 PM
Fri, Feb 27
58 °FFog.9 mph92%30.03 "Hg5 mi
10:58 PM58 °FSunny.6 mph88%30.03 "HgN/A
9:58 PM60 °FSunny.9 mph85%30.03 "HgN/A
8:58 PM61 °FSunny.8 mph81%30.03 "HgN/A
7:58 PM63 °FSunny.10 mph78%30.03 "HgN/A
6:58 PM64 °FSunny.13 mph72%30.01 "HgN/A
5:58 PM66 °FSunny.18 mph63%30.00 "HgN/A
4:58 PM69 °FSunny.21 mph52%29.98 "HgN/A
Weather by CustomWeather, © 2015

See weather overviewHow to use our weather pages